Regional Weather Roundup
Issued by NWS

Home | Current Version | Previous Version | Text Only | Print | Product List | Glossary Off
Versions: 1 2 3 4 5 6 7 8 9 10 11 12 13 14 15 16 17 18 19 20 21 22 23 24 25 26 27 28 29 30 31 32 33 34 35 36 37 38 39 40 41 42 43 44 45 46 47 48 49 50

000
ASUS43 KLSX 232307
RWRMO

WEATHER SUMMARY FOR MISSOURI
NATIONAL WEATHER SERVICE SPRINGFIELD MO
600 PM CDT WED JUL 23 2014

NOTE: "FAIR" INDICATES FEW OR NO CLOUDS BELOW 12,000 FEET WITH NO
       SIGNIFICANT WEATHER AND/OR OBSTRUCTIONS TO VISIBILITY.
       CURRENT SKY AND/OR WEATHER CONDITIONS ARE NOT AVAILABLE FOR
       CHILLICOTHE AND FARMINGTON.

MOZ001>031-035>038-043-044-053-054-240000-
...NORTHERN AND WESTERN MISSOURI...

CITY           SKY/WX    TMP DP  RH WIND       PRES   REMARKS
KANSAS CTY INT MOSUNNY   85  64  49 N15       30.10F
KANSAS C DTWN  SUNNY     87  62  43 N12       30.08F
LEE`S SUMMIT   SUNNY     86  64  47 N18       30.10S
ST JOSEPH      MOSUNNY   84  66  54 NE10      30.10F
CHILLICOTHE      N/A     85  62  46 N8        30.11F
KIRKSVILLE     MOSUNNY   78  61  55 N12       30.13S

$$
MOZ066>068-077>081-088>096-101>105-240000-
...SOUTHWEST MISSOURI...

CITY           SKY/WX    TMP DP  RH WIND       PRES   REMARKS
SPRINGFIELD    MOSUNNY   90  64  42 NE12      30.06R HX  91
JOPLIN         MOSUNNY   90  65  43 N10       30.06R HX  92

$$
MOZ032>034-039>042-045>050-055>058-069>072-240000-
...CENTRAL MISSOURI...

CITY           SKY/WX    TMP DP  RH WIND       PRES   REMARKS
COLUMBIA       SUNNY     84  64  50 N12       30.08R
JEFFERSON CITY MOSUNNY   85  63  47 N10       30.05R
ROLLA          SUNNY     84  67  56 NE10      30.05R
SEDALIA        SUNNY     85  64  49 NE14      30.09R
WHITEMAN AFB   MOSUNNY   85  55  35 NE14      30.09R
OSAGE BEACH    MOSUNNY   88  64  45 NE13      30.06R

$$
MOZ051-052-059>065-240000-
...EAST CENTRAL MISSOURI...

CITY           SKY/WX    TMP DP  RH WIND       PRES   REMARKS
ST LOUIS INTL  MOSUNNY   83  64  52 N14G23    30.05S
SPIRIT OF STL  MOSUNNY   83  65  54 NE13      30.04S
ST CHARLES     MOSUNNY   81  63  54 NE15      30.05S

$$
MOZ072>076-082>087-097>100-106>115-240000-
...SOUTH CENTRAL AND SOUTHEAST MISSOURI...

CITY           SKY/WX    TMP DP  RH WIND       PRES   REMARKS
CAPE GIRARDEAU PTSUNNY   78  71  79 W7        29.98F
FARMINGTON     SUNNY     82  70  65 N9        30.05R
POPLAR BLUFF   CLOUDY    76  67  73 W6        29.97F
WEST PLAINS    CLOUDY    76  69  79 W7        30.07R

$$


USA.gov is the U.S. government's official web portal to all federal, state and local government web resources and services.